TimeEDT,TemperatureF,Dew PointF,Humidity,Sea Level PressureIn,VisibilityMPH,Wind Direction,Wind SpeedMPH,Gust SpeedMPH,PrecipitationIn,Events,Conditions,WindDirDegrees,DateUTC
12:54 AM,78.1,73.0,84,29.80,8.0,South,4.6,-,N/A,,Clear,190,2013-06-13 04:54:00
1:54 AM,79.0,73.0,82,29.80,8.0,SSW,8.1,-,N/A,,Clear,210,2013-06-13 05:54:00
2:54 AM,78.1,73.0,84,29.78,8.0,SSW,5.8,-,N/A,,Clear,210,2013-06-13 06:54:00
3:54 AM,78.1,73.0,84,29.77,8.0,SW,5.8,-,N/A,,Clear,220,2013-06-13 07:54:00
4:54 AM,73.0,72.0,96,29.75,4.0,Calm,Calm,-,N/A,,Clear,0,2013-06-13 08:54:00
5:54 AM,75.9,73.0,91,29.73,5.0,South,5.8,-,N/A,,Clear,190,2013-06-13 09:54:00
6:54 AM,77.0,73.0,88,29.71,5.0,SSW,6.9,-,N/A,,Clear,200,2013-06-13 10:54:00
7:54 AM,79.0,73.0,82,29.72,6.0,SW,5.8,-,N/A,,Haze,220,2013-06-13 11:54:00
8:54 AM,80.1,72.0,76,29.71,7.0,SW,9.2,-,N/A,,Clear,220,2013-06-13 12:54:00
9:54 AM,82.0,71.1,69,29.71,8.0,SW,9.2,-,N/A,,Clear,220,2013-06-13 13:54:00
10:54 AM,86.0,72.0,63,29.69,9.0,SW,9.2,18.4,N/A,,Partly Cloudy,230,2013-06-13 14:54:00
11:54 AM,86.0,70.0,59,29.65,10.0,WSW,9.2,-,N/A,,Clear,250,2013-06-13 15:54:00
12:54 PM,89.1,71.1,55,29.62,10.0,SW,13.8,18.4,N/A,,Clear,220,2013-06-13 16:54:00
1:54 PM,90.0,71.1,54,29.59,10.0,SSW,15.0,21.9,N/A,,Partly Cloudy,210,2013-06-13 17:54:00
2:54 PM,91.0,70.0,50,29.55,10.0,SSW,17.3,25.3,N/A,,Scattered Clouds,200,2013-06-13 18:54:00
3:14 PM,89.6,69.8,52,29.54,9.0,SSW,16.1,21.9,N/A,Thunderstorm,Mostly Cloudy,210,2013-06-13 19:14:00
3:46 PM,78.8,62.6,57,29.56,10.0,WNW,12.7,27.6,N/A,Thunderstorm,Overcast,290,2013-06-13 19:46:00
3:54 PM,79.0,64.0,60,29.61,9.0,West,27.6,41.4,N/A,Thunderstorm,Overcast,260,2013-06-13 19:54:00
3:57 PM,75.2,64.4,69,29.62,1.5,West,33.4,43.7,0.03,Rain-Thunderstorm,Light Thunderstorms and Rain,270,2013-06-13 19:57:00
3:59 PM,71.6,66.2,83,29.61,0.8,West,24.2,43.7,0.09,Rain-Thunderstorm,Heavy Thunderstorms and Rain,270,2013-06-13 19:59:00
4:17 PM,69.8,66.2,88,29.62,1.5,WSW,15.0,-,0.35,Rain-Thunderstorm,Thunderstorms and Rain,250,2013-06-13 20:17:00
4:22 PM,68.0,66.2,94,29.62,3.0,West,17.3,21.9,0.35,Rain-Thunderstorm,Light Thunderstorms and Rain,260,2013-06-13 20:22:00
4:37 PM,69.8,66.2,88,29.62,4.0,WSW,12.7,21.9,0.37,Rain,Rain,240,2013-06-13 20:37:00
4:54 PM,69.1,66.9,93,29.59,4.0,WSW,10.4,23.0,0.41,Rain,Light Rain,250,2013-06-13 20:54:00
5:54 PM,71.1,68.0,90,29.53,9.0,WNW,3.5,-,0.02,Rain,Light Rain,290,2013-06-13 21:54:00
6:54 PM,71.1,68.0,90,29.58,10.0,SW,8.1,16.1,0.02,,Scattered Clouds,230,2013-06-13 22:54:00
7:54 PM,70.0,66.9,90,29.60,10.0,WSW,9.2,18.4,N/A,,Clear,250,2013-06-13 23:54:00
8:54 PM,70.0,66.9,90,29.60,10.0,West,6.9,-,N/A,,Clear,260,2013-06-14 00:54:00
9:54 PM,69.1,66.9,93,29.63,10.0,West,6.9,-,N/A,,Mostly Cloudy,270,2013-06-14 01:54:00
10:54 PM,69.1,66.9,93,29.65,10.0,West,6.9,-,N/A,,Clear,280,2013-06-14 02:54:00
11:54 PM,66.0,62.1,87,29.65,10.0,WNW,5.8,-,N/A,,Clear,290,2013-06-14 03:54:00